SAS4FM ESGG-EKCH

Flight info

Callsign SAS4FM
Flight time 0h 45m
Altitude 19000
Route TOPLA L996 ERNOV
Aircraft A343/H-SDE2E3FGHIJ4J5M1RWXY/LB1D1

Departure

Time 2026-05-05 19:36
Airport Göteborg Landvetter Airport (ESGG)

Arrival

Time 2026-05-05 20:21
Airport Copenhagen Kastrup Airport (EKCH)
Time Latitude Longitude Altitude Speed Heading
2026-05-05 19:17 57.66732 12.29255 530 ft 0 kts 116°
2026-05-05 19:26 57.66735 12.29244 530 ft 3 kts 116°
2026-05-05 19:26 57.66743 12.29214 530 ft 3 kts 116°
2026-05-05 19:26 57.66755 12.29185 530 ft 3 kts 160°
2026-05-05 19:26 57.66773 12.29176 530 ft 3 kts 186°
2026-05-05 19:27 57.66791 12.29183 530 ft 3 kts 204°
2026-05-05 19:27 57.66806 12.29197 530 ft 2 kts 207°
2026-05-05 19:27 57.66813 12.29203 531 ft 0 kts 207°
2026-05-05 19:29 57.66811 12.29202 531 ft 1 kts 207°
2026-05-05 19:29 57.66786 12.29160 530 ft 6 kts 248°
2026-05-05 19:29 57.66804 12.28987 530 ft 20 kts 292°
2026-05-05 19:29 57.66895 12.28890 531 ft 18 kts 12°
2026-05-05 19:30 57.67013 12.28987 532 ft 18 kts 25°
2026-05-05 19:30 57.67108 12.29073 533 ft 6 kts 26°
2026-05-05 19:30 57.67111 12.29076 533 ft 1 kts 26°
2026-05-05 19:30 57.67132 12.29096 533 ft 8 kts 26°
2026-05-05 19:31 57.67199 12.29159 534 ft 15 kts 27°
2026-05-05 19:31 57.67328 12.29279 535 ft 22 kts 26°
2026-05-05 19:31 57.67413 12.29334 536 ft 2 kts 354°
2026-05-05 19:31 57.67437 12.29308 536 ft 4 kts 326°
2026-05-05 19:32 57.67449 12.29263 536 ft 7 kts 290°
2026-05-05 19:32 57.67449 12.29109 534 ft 17 kts 260°
2026-05-05 19:32 57.67402 12.28997 534 ft 0 kts 207°
2026-05-05 19:32 57.67399 12.28994 534 ft 1 kts 207°
2026-05-05 19:33 57.67388 12.28983 534 ft 3 kts 207°
2026-05-05 19:33 57.67386 12.28982 534 ft 0 kts 207°
2026-05-05 19:35 57.67165 12.28782 535 ft 64 kts 205°
2026-05-05 19:35 57.66590 12.28259 528 ft 117 kts 206°
2026-05-05 19:35 57.65728 12.27457 532 ft 158 kts 208°
2026-05-05 19:35 57.64708 12.26452 903 ft 168 kts 210°
2026-05-05 19:36 57.63727 12.25492 1779 ft 154 kts 205°
2026-05-05 19:36 57.62667 12.25156 2311 ft 161 kts 185°
2026-05-05 19:36 57.61471 12.24851 2617 ft 187 kts 189°
2026-05-05 19:36 57.60094 12.24467 3026 ft 211 kts 190°
2026-05-05 19:37 57.58569 12.23968 3499 ft 235 kts 193°
2026-05-05 19:37 57.56916 12.23295 4154 ft 248 kts 194°
2026-05-05 19:37 57.55210 12.22574 5013 ft 255 kts 195°
2026-05-05 19:37 57.53431 12.22106 5842 ft 264 kts 176°
2026-05-05 19:38 57.51612 12.22754 6731 ft 269 kts 170°
2026-05-05 19:38 57.49767 12.23520 7585 ft 275 kts 170°
2026-05-05 19:38 57.47906 12.24310 8379 ft 279 kts 172°
2026-05-05 19:38 57.45988 12.25004 9215 ft 283 kts 174°
2026-05-05 19:39 57.44041 12.25622 10055 ft 285 kts 176°
2026-05-05 19:39 57.42033 12.26212 10557 ft 301 kts 177°
2026-05-05 19:39 57.39901 12.26804 10905 ft 318 kts 177°
2026-05-05 19:39 57.37650 12.27417 11247 ft 335 kts 177°
2026-05-05 19:40 57.35301 12.28054 11688 ft 347 kts 177°
2026-05-05 19:40 57.32880 12.28711 12305 ft 354 kts 178°
2026-05-05 19:40 57.30424 12.29375 12971 ft 359 kts 178°
2026-05-05 19:40 57.27939 12.30047 13686 ft 363 kts 178°
2026-05-05 19:41 57.25428 12.30723 14327 ft 367 kts 178°
2026-05-05 19:41 57.22887 12.31405 14984 ft 370 kts 178°
2026-05-05 19:41 57.20325 12.32090 15617 ft 374 kts 178°
2026-05-05 19:41 57.17736 12.32779 16275 ft 378 kts 179°
2026-05-05 19:42 57.15124 12.33474 16936 ft 382 kts 179°
2026-05-05 19:42 57.12481 12.34176 17553 ft 385 kts 179°
2026-05-05 19:42 57.09811 12.34861 18209 ft 389 kts 179°
2026-05-05 19:42 57.07116 12.35526 18702 ft 393 kts 179°
2026-05-05 19:43 57.04389 12.36191 18912 ft 397 kts 179°
2026-05-05 19:43 57.01601 12.36863 18956 ft 410 kts 179°
2026-05-05 19:43 56.98752 12.37553 18957 ft 415 kts 179°
2026-05-05 19:43 56.95894 12.38259 18958 ft 415 kts 179°
2026-05-05 19:44 56.93033 12.38972 18955 ft 415 kts 178°
2026-05-05 19:44 56.91155 12.39441 18953 ft 415 kts 179°
2026-05-05 19:44 56.88330 12.40143 18947 ft 415 kts 179°
2026-05-05 19:44 56.85469 12.40852 18950 ft 415 kts 179°
2026-05-05 19:45 56.82605 12.41557 18946 ft 415 kts 179°
2026-05-05 19:45 56.79746 12.42259 18946 ft 415 kts 179°
2026-05-05 19:45 56.76879 12.42961 18835 ft 414 kts 179°
2026-05-05 19:45 56.74040 12.43658 18452 ft 408 kts 179°
2026-05-05 19:46 56.71268 12.44345 18187 ft 398 kts 179°
2026-05-05 19:46 56.68545 12.45016 17730 ft 392 kts 179°
2026-05-05 19:46 56.65855 12.45672 17244 ft 388 kts 179°
2026-05-05 19:46 56.63187 12.46317 16738 ft 385 kts 178°
2026-05-05 19:47 56.60540 12.46955 16243 ft 382 kts 178°
2026-05-05 19:47 56.57905 12.47589 15749 ft 379 kts 178°
2026-05-05 19:47 56.55301 12.48216 15260 ft 377 kts 178°
2026-05-05 19:47 56.52709 12.48841 14792 ft 374 kts 178°
2026-05-05 19:48 56.50138 12.49460 14326 ft 371 kts 178°
2026-05-05 19:48 56.47582 12.50075 13839 ft 369 kts 177°
2026-05-05 19:48 56.45042 12.50685 13321 ft 367 kts 177°
2026-05-05 19:48 56.42543 12.51284 12823 ft 365 kts 176°
2026-05-05 19:49 56.40042 12.51890 12550 ft 357 kts 176°
2026-05-05 19:49 56.38426 12.52279 12400 ft 351 kts 176°
2026-05-05 19:49 56.35248 12.53036 12147 ft 339 kts 176°
2026-05-05 19:49 56.32935 12.53586 11951 ft 330 kts 176°
2026-05-05 19:50 56.30679 12.54122 11783 ft 322 kts 176°
2026-05-05 19:50 56.28486 12.54642 11614 ft 314 kts 176°
2026-05-05 19:50 56.26365 12.55145 11477 ft 307 kts 176°
2026-05-05 19:50 56.24271 12.55640 11311 ft 300 kts 176°
2026-05-05 19:51 56.22216 12.56125 11084 ft 296 kts 176°
2026-05-05 19:51 56.20181 12.56604 10812 ft 294 kts 176°
2026-05-05 19:51 56.18162 12.57079 10569 ft 291 kts 176°
2026-05-05 19:51 56.16158 12.57378 10292 ft 288 kts 182°
2026-05-05 19:52 56.14160 12.57430 10035 ft 286 kts 183°
2026-05-05 19:52 56.12182 12.57443 9952 ft 284 kts 183°
2026-05-05 19:52 56.10201 12.57454 9943 ft 285 kts 183°
2026-05-05 19:52 56.08209 12.57469 9941 ft 285 kts 183°
2026-05-05 19:53 56.06227 12.57486 9942 ft 285 kts 183°
2026-05-05 19:53 56.04243 12.57505 9945 ft 285 kts 183°
2026-05-05 19:53 56.02256 12.57524 9941 ft 285 kts 183°
2026-05-05 19:53 56.00269 12.57543 9942 ft 285 kts 183°
2026-05-05 19:54 55.98283 12.57562 9939 ft 285 kts 183°
2026-05-05 19:54 55.96294 12.57582 9937 ft 285 kts 183°
2026-05-05 19:54 55.94307 12.57601 9936 ft 285 kts 183°
2026-05-05 19:54 55.92321 12.57621 9926 ft 285 kts 183°
2026-05-05 19:55 55.90360 12.57640 9948 ft 286 kts 183°
2026-05-05 19:55 55.88348 12.57654 9934 ft 285 kts 184°
2026-05-05 19:55 55.86437 12.57200 9656 ft 279 kts 199°
2026-05-05 19:55 55.84601 12.56112 9287 ft 278 kts 203°
2026-05-05 19:56 55.82782 12.54911 8922 ft 279 kts 203°
2026-05-05 19:56 55.80964 12.53709 8588 ft 278 kts 202°
2026-05-05 19:56 55.79145 12.52517 8249 ft 278 kts 202°
2026-05-05 19:56 55.77330 12.51335 7930 ft 278 kts 201°
2026-05-05 19:57 55.75515 12.50159 7569 ft 276 kts 202°
2026-05-05 19:57 55.74324 12.49389 7197 ft 274 kts 201°
2026-05-05 19:57 55.71930 12.47841 6135 ft 275 kts 200°
2026-05-05 19:57 55.70114 12.46671 5263 ft 280 kts 200°
2026-05-05 19:58 55.68279 12.45491 4762 ft 281 kts 200°
2026-05-05 19:58 55.66458 12.44320 4497 ft 276 kts 199°
2026-05-05 19:58 55.64680 12.43179 4187 ft 274 kts 199°
2026-05-05 19:58 55.62892 12.42033 3830 ft 273 kts 199°
2026-05-05 19:59 55.61100 12.40891 3481 ft 274 kts 199°
2026-05-05 19:59 55.59308 12.39747 3121 ft 273 kts 199°
2026-05-05 19:59 55.57537 12.38620 2998 ft 270 kts 199°
2026-05-05 19:59 55.55764 12.37489 2990 ft 271 kts 199°
2026-05-05 20:00 55.54590 12.36741 2989 ft 271 kts 199°
2026-05-05 20:00 55.52767 12.35995 2798 ft 269 kts 179°
2026-05-05 20:00 55.50961 12.36660 2357 ft 267 kts 151°
2026-05-05 20:00 55.49450 12.38498 2050 ft 262 kts 136°
2026-05-05 20:01 55.48106 12.40636 1985 ft 259 kts 129°
2026-05-05 20:01 55.47308 12.43390 1991 ft 250 kts 95°
2026-05-05 20:01 55.47554 12.46238 1966 ft 227 kts 58°
2026-05-05 20:01 55.48633 12.47923 1986 ft 197 kts 22°
2026-05-05 20:02 55.49866 12.48814 2021 ft 189 kts 22°
2026-05-05 20:02 55.51073 12.49664 1996 ft 183 kts 22°
2026-05-05 20:02 55.52208 12.50451 1856 ft 169 kts 22°
2026-05-05 20:02 55.53199 12.51349 1640 ft 153 kts 33°
2026-05-05 20:03 55.53986 12.52439 1420 ft 139 kts 39°
2026-05-05 20:03 55.54698 12.53470 1234 ft 126 kts 38°
2026-05-05 20:03 55.55356 12.54425 1070 ft 121 kts 38°
2026-05-05 20:03 55.56004 12.55395 904 ft 123 kts 38°
2026-05-05 20:04 55.56660 12.56397 709 ft 126 kts 39°
2026-05-05 20:04 55.57317 12.57439 535 ft 127 kts 39°
2026-05-05 20:04 55.57981 12.58469 365 ft 128 kts 37°
2026-05-05 20:04 55.58669 12.59495 179 ft 132 kts 37°
2026-05-05 20:05 55.59342 12.60555 38 ft 127 kts 38°
2026-05-05 20:05 55.59968 12.61561 391 ft 125 kts 40°
2026-05-05 20:05 55.60620 12.62714 973 ft 139 kts 45°
2026-05-05 20:05 55.61256 12.64053 1643 ft 143 kts 53°
2026-05-05 20:06 55.61829 12.65451 2221 ft 141 kts 49°
2026-05-05 20:06 55.62640 12.66480 2606 ft 155 kts 20°
2026-05-05 20:06 55.63768 12.66508 2968 ft 175 kts 344°
2026-05-05 20:06 55.64843 12.65330 3332 ft 191 kts 326°
2026-05-05 20:07 55.65790 12.63601 3301 ft 209 kts 298°
2026-05-05 20:07 55.66093 12.60909 3017 ft 235 kts 274°
2026-05-05 20:07 55.65993 12.58021 2933 ft 238 kts 265°
2026-05-05 20:07 55.65828 12.55116 2942 ft 237 kts 266°
2026-05-05 20:08 55.65494 12.52254 2927 ft 238 kts 253°
2026-05-05 20:08 55.64802 12.49627 2765 ft 233 kts 239°
2026-05-05 20:08 55.63922 12.47231 2490 ft 234 kts 237°
2026-05-05 20:08 55.62840 12.45040 2123 ft 238 kts 223°
2026-05-05 20:09 55.61596 12.43150 1995 ft 241 kts 220°
2026-05-05 20:09 55.60291 12.41261 1992 ft 242 kts 220°
2026-05-05 20:09 55.58929 12.39517 1989 ft 242 kts 206°
2026-05-05 20:09 55.57299 12.38944 1993 ft 239 kts 173°
2026-05-05 20:10 55.55770 12.39884 1996 ft 233 kts 143°
2026-05-05 20:10 55.54492 12.41615 1994 ft 231 kts 136°
2026-05-05 20:10 55.53307 12.43421 1985 ft 218 kts 135°
2026-05-05 20:10 55.52275 12.45252 1991 ft 200 kts 122°
2026-05-05 20:11 55.51971 12.47353 2000 ft 172 kts 75°
2026-05-05 20:11 55.52399 12.49194 1948 ft 151 kts 56°
2026-05-05 20:11 55.52969 12.50635 1740 ft 136 kts 44°
2026-05-05 20:11 55.53638 12.51682 1528 ft 123 kts 38°
2026-05-05 20:12 55.54256 12.52687 1379 ft 120 kts 40°
2026-05-05 20:12 55.54890 12.53661 1203 ft 121 kts 39°
2026-05-05 20:12 55.55528 12.54645 1035 ft 122 kts 40°
2026-05-05 20:12 55.56170 12.55647 849 ft 124 kts 40°
2026-05-05 20:13 55.56818 12.56665 674 ft 126 kts 40°
2026-05-05 20:13 55.57474 12.57692 482 ft 125 kts 36°
2026-05-05 20:13 55.58153 12.58700 316 ft 129 kts 38°
2026-05-05 20:13 55.58822 12.59759 139 ft 129 kts 38°
2026-05-05 20:14 55.59485 12.60783 34 ft 124 kts 39°
2026-05-05 20:14 55.60088 12.61669 242 ft 117 kts 30°
2026-05-05 20:14 55.60815 12.61282 583 ft 135 kts 298°
2026-05-05 20:14 55.60986 12.59532 1200 ft 154 kts 278°
2026-05-05 20:15 55.61061 12.57641 1811 ft 157 kts 279°
2026-05-05 20:15 55.60806 12.55716 2228 ft 170 kts 245°
2026-05-05 20:15 55.60350 12.53684 2399 ft 188 kts 251°
2026-05-05 20:15 55.59909 12.51437 2281 ft 202 kts 258°
2026-05-05 20:16 55.59536 12.49090 2410 ft 202 kts 257°
2026-05-05 20:16 55.59054 12.46795 2218 ft 195 kts 242°
2026-05-05 20:16 55.58066 12.45282 1992 ft 186 kts 201°
2026-05-05 20:16 55.56846 12.45200 1664 ft 171 kts 158°
2026-05-05 20:17 55.55842 12.46165 1346 ft 160 kts 139°
2026-05-05 20:17 55.55090 12.47497 1009 ft 146 kts 109°
2026-05-05 20:17 55.54965 12.49098 889 ft 127 kts 79°
2026-05-05 20:17 55.55091 12.50660 987 ft 129 kts 76°
2026-05-05 20:18 55.55336 12.52170 994 ft 127 kts 67°
2026-05-05 20:18 55.55644 12.53631 986 ft 128 kts 66°
2026-05-05 20:18 55.56040 12.55029 948 ft 128 kts 55°
2026-05-05 20:18 55.56532 12.56334 752 ft 127 kts 49°
2026-05-05 20:19 55.57216 12.57335 558 ft 129 kts 34°
2026-05-05 20:19 55.57905 12.58355 368 ft 130 kts 38°
2026-05-05 20:19 55.58589 12.59402 200 ft 130 kts 37°
2026-05-05 20:19 55.59252 12.60420 51 ft 128 kts 37°
2026-05-05 20:20 55.59887 12.61384 28 ft 104 kts 41°
2026-05-05 20:20 55.60360 12.62105 20 ft 79 kts 40°
2026-05-05 20:20 55.60724 12.62674 31 ft 65 kts 41°
2026-05-05 20:20 55.61098 12.63249 30 ft 75 kts 40°
2026-05-05 20:21 55.61435 12.63769 20 ft 55 kts 38°
2026-05-05 20:21 55.61731 12.63864 28 ft 48 kts 26°
2026-05-05 20:21 55.62090 12.64220 26 ft 53 kts 24°
2026-05-05 20:21 55.62189 12.64520 26 ft 11 kts 123°